Location: Asheville, NC
(35.6000°N, 82.5500°W)
Time: 03:35:11
(UTC-04:00)

UWE-3 - Visible Passes

Search period start: 21 April 2018 00:00
Search period end: 01 May 2018 00:00
Orbit: 586 x 684 km, 97.6° (Epoch: 20 April)

Date Brightness Start Highest point End Pass type
(mag) Time Alt. Az. Time Alt. Az. Time Alt. Az.
21 Apr ? 21:14:37 10° SW 21:17:10 16° W 21:19:45 10° NW visible
24 Apr ? 20:42:25 10° SSW 20:46:16 36° W 20:50:12 10° NNW visible
25 Apr ? 21:05:12 10° SW 21:08:17 20° W 21:11:26 10° NW visible
26 Apr ? 21:29:18 10° WSW 21:30:23 11° W 21:31:29 10° WNW visible
29 Apr ? 20:55:55 10° SSW 20:59:25 25° W 21:02:59 10° NW visible
30 Apr ? 21:19:13 10° SW 21:21:29 14° W 21:23:46 10° WNW visible
